Location: Coche
(10.4506°N, 66.9257°W)
Time: 05:39:36
(UTC+00:00)

Envisat - Pass Details

Date: 29 November 2022
Orbit: 763 x 765 km, 98.2° (Epoch: 05 February)

Event Time Altitude Azimuth Distance (km) Brightness Sun altitude
Exits shadow 08:49:32 26° 218° (SW) 1,470 4.3 -23.8°
Drops below altitude 10° 08:51:48 10° 207° (SSW) 2,294 5.4 -23.3°
Sets 08:54:09 0° 202° (SSW) 3,220 6.2 -22.7°
